Date,TemperatureHighF,TemperatureAvgF,TemperatureLowF,DewpointHighF,DewpointAvgF,DewpointLowF,HumidityHigh,HumidityAvg,HumidityLow,PressureMaxIn,PressureMinIn,WindSpeedMaxMPH,WindSpeedAvgMPH,GustSpeedMaxMPH,PrecipitationSumIn
2013-1-1,3.8,1.3,3.8,1.0,-66.3,-99.9,88,29,88,30.28,30.28,0,-666,2,0.00
2013-1-2,30.2,19.7,6.9,27.0,15.4,3.0,92,83,76,30.28,30.15,9,3,12,0.00
2013-1-3,30.9,17.9,4.5,28.0,13.7,1.0,91,83,77,30.47,30.26,18,6,21,0.00
2013-1-4,34.3,21.4,12.0,25.0,16.4,10.0,93,81,66,30.39,30.26,9,2,14,0.00
2013-1-5,38.6,26.0,13.9,33.0,21.9,11.0,94,84,75,30.25,30.01,21,5,24,0.01
2013-1-6,28.5,19.7,9.9,20.0,14.6,6.0,93,81,70,30.40,30.19,19,4,25,0.00
2013-1-7,42.0,31.9,22.7,31.0,25.0,19.0,92,76,63,30.27,30.07,12,4,21,0.00
2013-1-8,45.3,32.7,18.8,35.0,27.6,17.0,94,82,66,30.15,29.91,10,3,13,0.00
2013-1-9,42.1,33.9,24.2,34.0,29.3,22.0,93,83,71,30.51,30.14,10,2,15,0.00
2013-1-10,39.1,34.7,28.8,36.0,30.6,25.0,96,85,69,30.45,29.79,9,4,15,0.05
2013-1-11,52.1,43.9,34.8,46.0,41.2,34.0,97,90,76,29.79,29.49,21,5,23,0.01
2013-1-12,45.6,24.1,14.2,38.0,17.1,7.0,90,75,68,30.18,29.61,18,10,27,0.00
2013-1-13,19.9,13.1,8.4,12.0,6.5,3.0,85,75,66,30.44,30.14,17,8,20,0.00
2013-1-14,30.4,17.5,5.9,15.0,9.8,2.0,87,73,48,30.59,30.44,9,1,13,0.00
2013-1-15,34.8,24.2,13.8,18.0,14.2,10.0,84,67,46,30.48,30.14,8,3,12,0.00
2013-1-16,47.9,33.8,23.3,37.0,26.2,14.0,89,74,64,30.28,29.95,15,6,19,0.00
2013-1-17,36.5,25.5,15.7,26.0,18.4,11.0,88,75,52,30.54,30.28,9,2,12,0.00
2013-1-18,54.5,41.2,26.4,36.0,31.0,21.0,85,68,48,30.40,29.92,17,6,27,0.00
2013-1-19,49.1,39.7,18.6,37.0,30.4,8.0,81,70,57,30.34,29.86,25,10,35,0.00
2013-1-20,18.3,12.2,3.1,10.0,5.9,-3.0,85,76,64,30.49,30.34,17,7,22,0.00
2013-1-21,9.0,3.6,-2.6,1.0,-3.3,-10.0,83,73,67,30.59,30.46,22,9,28,0.00
2013-1-22,17.1,10.5,0.8,8.0,2.0,-4.0,82,69,57,30.57,30.40,7,2,8,0.00
2013-1-23,27.9,17.1,5.5,20.0,9.1,-2.0,80,71,59,30.65,30.29,18,8,24,0.00
2013-1-24,21.0,11.7,4.1,7.0,-0.5,-6.0,71,59,47,30.73,30.33,14,6,17,0.00
2013-1-25,37.0,24.4,13.4,27.0,15.3,4.0,81,69,56,30.39,30.20,19,8,24,0.00
2013-1-26,36.7,22.5,9.0,18.0,10.0,3.0,78,61,42,30.45,30.23,12,5,15,0.00
2013-1-27,36.2,34.1,32.3,35.0,29.6,18.0,96,85,55,30.22,29.80,13,3,14,0.20
2013-1-28,46.5,37.6,34.1,46.0,36.8,33.0,97,97,96,29.98,29.61,9,4,13,0.01
2013-1-29,59.1,38.4,32.1,58.0,36.6,30.0,98,93,87,29.73,29.55,19,8,23,0.02
2013-1-30,31.9,23.6,14.8,30.0,20.3,9.0,94,87,79,29.95,29.57,27,16,36,0.00
2013-1-31,14.5,6.9,0.4,9.0,0.6,-6.0,81,75,71,30.50,29.96,25,15,34,0.00